カタログに戻る

ATLAS 5 CENTAUR DEB

運用中HEO
NORAD 44693·DEBRIS·🇺🇸 United States

打ち上げ Oct 17, 2018 から Cape Canaveral Space Force Station

Loading…

次のパス (今後24時間)

TLE

最新Source: Space-Track

元期: Sep 13, 2026, 10:59 UTC

1 44693U 18079BF  26256.45778192 -.00000164  00000-0  00000-0 0  9997
2 44693  13.5940  33.6213 4676009 312.9519  16.2458  1.78456466 48454

AllMySatでATLAS 5 CENTAUR DEBをリアルタイム追跡

Download on the App Store